AMC-18

导读 | 豆包AI

AMC-18卫星由全球知名卫星运营商SES集团拥有,于2006年12月8日发射升空。该卫星定位于地球同步轨道,主要承担北美地区有线电视信号分发、卫星通信与数据传输服务,具备强大的信号覆盖能力和可靠的通信性能,长期为用户提供稳定的广电传输与宽带连接服务,是SES北美通信网络中的重要卫星节点,支撑区域内媒体与通信业务稳定运行。

Basic Information
目录编号:
29644
目录名称:
AMC-18
国际标识:
2006-054B
轨道中心:
EARTH
卫星名称:
AMC-18
卫星全名:
--
卫星状态:
在轨 (已飞行7084 天)
发射日期:
2006-12-08 UTC
国别 :
(SES)
星等 :
--
Orbit Information
数据来源 国际轨道数据 AOE轨道数据
星历时间 2026-05-01T05:51:29+0800
9小时前
查看轨道信息
2026-05-01T05:00:00+0800
10小时前
查看轨道信息
半长轴 42564.779km 42564.808km
偏心率 0.0005033 0.0005072
轨道倾角 2.491° 2.491°
近地点辐角 129.325° 129.657°
升交点赤经 84.769° 84.772°
平近点角 312.632° 299.570°
近地点 36165.219km 36165.082km
远地点 36208.065km 36208.26km
周期 1456.583分钟 1456.585分钟
每日圈数 0.988615 0.988614
Detailed Information
使用方式:
暂无
2D Orbit Map
3D Orbit Map
Orbit Altitude Analysis Chart
Orbit Inclination Analysis Chart
Orbit Comprehensive Analysis Chart
View Comprehensive Chart